OneWeb SL0563

operational
NORAD ID: 55800 Int'l Des: 2023-029 Owner: ONEWEBN Country: UK Constellation: oneweb
LEOCIRCULARPOLARONEWEB_TYPE

关于 OneWeb SL0563

正在加载描述...

实时位置

正在加载3D地球...

即将过境

高度历史

Altitude vs Time

uPlot chart will show altitude changes over time

两行轨道根数

1 55800U 23029E 26034.20293629 -.00000002 00000-0 -36183-4 0 9991
2 55800 87.9219 301.2306 0001407 73.6963 286.4325 13.20774687143459
Epoch: Feb 3, 2026 • Age: 9 hours

当前状态

高度 1183.7 km
速度 7.26 km/s
星下点 21.28°N, 42.83°W
发射日期 Mar 9, 2023
运行时间 2.9 years
类型 internet

技术详情

分类 Payload
质量 148.00 kg
干质量 140.00 kg
总质量 148.00 kg
长度 1.30 m
直径 1.00 m
跨度 5.00 m
形状 Trapezoid+2 pan
制造商 ONEWUS
平台类型 ARROW
阶段状态 In Orbit
所有者/国家 ONEWEBN/UK

大型星座

Loading constellations...